Change the Weather History Date:

Tuesday, March 11, 2014

  Actual Average Record
Temperature  
Mean Temperature 48 °F -  
Max Temperature 61 °F 41 °F 68 °F (1977)
Min Temperature 36 °F 26 °F 11 °F (1987)
Degree Days  
Heating Degree Days 17    
Moisture  
Dew Point 30 °F    
Average Humidity 50    
Maximum Humidity 76    
Minimum Humidity 28    
Precipitation  
Precipitation 0.00 in - - ()
Sea Level Pressure  
Sea Level Pressure 29.62 in    
Wind  
Wind Speed 5 mph (WNW)    
Max Wind Speed 14 mph    
Max Gust Speed 17 mph    
Visibility 10 miles    
Events      
Averages and records for this station are not official NWS values.
T = Trace of Precipitation, MM = Missing Value Source: NWS Daily Summary

Daily Weather History Graph

Daily Weather History Graph

Search for Another Location

Airport or City:

Trip Planner

Search our weather history database for the weather conditions in past years. The results will help you decide how hot, cold, wet, or windy it might be!

Date:

Astronomy

Mar. 11, 2014 Rise Set
Actual Time 7:13 AM EDT 6:57 PM EDT
Civil Twilight 6:45 AM EDT 7:24 PM EDT
Nautical Twilight 6:13 AM EDT 7:56 PM EDT
Astronomical Twilight 5:41 AM EDT 8:28 PM EDT
Moon 2:29 PM EDT (3/11) 4:06 AM EDT (3/11)
Length of Visible Light 12h 38m
Length of Day
11h 43m
Waxing Gibbous, 78% of the Moon is Illuminated
Mar 11
Waxing Gibbous
Mar 16
Full
Mar 23
Last Quarter
Mar 30
New
Apr 7
First Quarter

Hourly Weather History & Observations

Time (EDT) Temp. Windchill Dew Point Humidity Pressure Visibility Wind Dir Wind Speed Gust Speed Precip Events Conditions
12:56 AM 36.0 °F 33.3 °F 28.9 °F 76% 29.58 in 7.0 mi South 3.5 mph - N/A   Mostly Cloudy
1:56 AM 39.0 °F 36.8 °F 30.9 °F 73% 29.57 in 7.0 mi West 3.5 mph - N/A   Clear
2:56 AM 39.9 °F - 30.9 °F 70% 29.56 in 9.0 mi Calm Calm - N/A   Clear
3:56 AM 39.9 °F - 30.0 °F 68% 29.55 in 10.0 mi Calm Calm - N/A   Clear
4:56 AM 42.1 °F 39.2 °F 28.9 °F 60% 29.55 in 10.0 mi West 4.6 mph - N/A   Clear
5:56 AM 43.0 °F 40.3 °F 28.9 °F 58% 29.57 in 10.0 mi West 4.6 mph - N/A   Clear
6:56 AM 43.0 °F 39.5 °F 28.9 °F 58% 29.61 in 10.0 mi West 5.8 mph - N/A   Clear
7:56 AM 44.1 °F 41.5 °F 30.0 °F 58% 29.62 in 10.0 mi West 4.6 mph - N/A   Clear
8:56 AM 46.0 °F 43.9 °F 30.9 °F 56% 29.63 in 10.0 mi West 4.6 mph - N/A   Partly Cloudy
9:56 AM 50.0 °F - 33.1 °F 52% 29.64 in 10.0 mi West 9.2 mph - N/A   Clear
10:56 AM 53.1 °F - 34.0 °F 48% 29.63 in 10.0 mi WNW 10.4 mph - N/A   Clear
11:56 AM 54.0 °F - 33.1 °F 45% 29.62 in 10.0 mi WNW 10.4 mph - N/A   Clear
12:56 PM 57.0 °F - 30.0 °F 36% 29.62 in 10.0 mi WNW 11.5 mph 17.3 mph N/A   Clear
1:56 PM 59.0 °F - 28.9 °F 32% 29.61 in 10.0 mi WNW 13.8 mph - N/A   Clear
2:56 PM 60.1 °F - 28.0 °F 30% 29.61 in 10.0 mi WNW 10.4 mph - N/A   Clear
3:56 PM 60.1 °F - 27.0 °F 28% 29.62 in 10.0 mi West 12.7 mph - N/A   Clear
4:56 PM 60.1 °F - 28.0 °F 30% 29.62 in 10.0 mi NW 11.5 mph - N/A   Clear
5:56 PM 57.0 °F - 28.9 °F 34% 29.64 in 10.0 mi NW 6.9 mph - N/A   Clear
6:56 PM 53.1 °F - 26.1 °F 35% 29.66 in 10.0 mi Calm Calm - N/A   Clear
7:56 PM 48.9 °F - 28.0 °F 44% 29.68 in 10.0 mi WNW 4.6 mph - N/A   Clear
8:56 PM 45.0 °F - 28.9 °F 53% 29.69 in 10.0 mi Calm Calm - N/A   Clear
9:56 PM 46.0 °F - 28.0 °F 50% 29.71 in 10.0 mi Calm Calm - N/A   Scattered Clouds
10:56 PM 44.1 °F - 30.0 °F 58% 29.70 in 10.0 mi Calm Calm - N/A   Scattered Clouds
11:56 PM 44.1 °F - 30.0 °F 58% 29.69 in 10.0 mi Calm Calm - N/A   Mostly Cloudy